ACA844 CYUL-EDDF

Flight info

Callsign ACA844
Flight time N/A
Altitude 37000
Route ANTEG DCT OBRON DCT MOBUB DCT EBMOS DCT CEFOU DCT YNA DCT YAY DCT RIKAL/M085F390 DCT 53N050W 55N040W 56N030W 56N020W DCT RESNO DCT NETKI/N0498F390 DCT NIBOG DCT BELOX L603 DOLAS DCT NAVPI DCT SOGPO DCT DIXAT DIXAT1C
Aircraft B789/H-SDE1E2E3FGHIJ2J3J4J5M1RWXY/LB1D1

Departure

Time 2026-05-07 19:39
Airport Montreal / Pierre Elliott Trudeau International Airport (CYUL)

Arrival

Time N/A
Airport Frankfurt Main Airport (EDDF)
Time Latitude Longitude Altitude Speed Heading
2026-05-07 19:02 45.45981 -73.75737 110 ft 0 kts 177°
2026-05-07 19:23 45.45982 -73.75738 110 ft 0 kts 177°
2026-05-07 19:24 45.45984 -73.75738 109 ft 0 kts 177°
2026-05-07 19:24 45.45986 -73.75738 109 ft 0 kts 177°
2026-05-07 19:24 45.45994 -73.75738 109 ft 3 kts 177°
2026-05-07 19:24 45.46018 -73.75740 109 ft 5 kts 178°
2026-05-07 19:25 45.46045 -73.75749 108 ft 3 kts 134°
2026-05-07 19:25 45.46054 -73.75777 106 ft 3 kts 109°
2026-05-07 19:25 45.46056 -73.75802 106 ft 0 kts 87°
2026-05-07 19:28 45.46056 -73.75799 106 ft 2 kts 86°
2026-05-07 19:28 45.46063 -73.75741 109 ft 4 kts 69°
2026-05-07 19:28 45.46074 -73.75728 108 ft 4 kts 32°
2026-05-07 19:29 45.46114 -73.75709 107 ft 4 kts 34°
2026-05-07 19:29 45.46125 -73.75684 107 ft 2 kts 71°
2026-05-07 19:29 45.46131 -73.75639 107 ft 8 kts 80°
2026-05-07 19:29 45.46135 -73.75539 107 ft 13 kts 88°
2026-05-07 19:30 45.46140 -73.75383 107 ft 19 kts 86°
2026-05-07 19:30 45.46146 -73.75194 107 ft 19 kts 88°
2026-05-07 19:30 45.46151 -73.75007 110 ft 18 kts 87°
2026-05-07 19:30 45.46157 -73.74815 109 ft 22 kts 88°
2026-05-07 19:31 45.46155 -73.74598 108 ft 18 kts 113°
2026-05-07 19:31 45.46130 -73.74450 109 ft 16 kts 87°
2026-05-07 19:31 45.46134 -73.74284 108 ft 17 kts 88°
2026-05-07 19:31 45.46140 -73.74116 110 ft 17 kts 86°
2026-05-07 19:32 45.46194 -73.73986 110 ft 16 kts 43°
2026-05-07 19:32 45.46275 -73.73880 111 ft 16 kts 43°
2026-05-07 19:32 45.46352 -73.73778 109 ft 15 kts 43°
2026-05-07 19:32 45.46428 -73.73678 110 ft 15 kts 43°
2026-05-07 19:33 45.46502 -73.73581 111 ft 14 kts 43°
2026-05-07 19:33 45.46575 -73.73484 114 ft 14 kts 43°
2026-05-07 19:33 45.46647 -73.73389 114 ft 14 kts 43°
2026-05-07 19:33 45.46717 -73.73298 114 ft 14 kts 42°
2026-05-07 19:34 45.46786 -73.73209 116 ft 13 kts 42°
2026-05-07 19:34 45.46854 -73.73121 116 ft 14 kts 42°
2026-05-07 19:34 45.46934 -73.73016 117 ft 18 kts 43°
2026-05-07 19:34 45.47040 -73.72877 119 ft 22 kts 42°
2026-05-07 19:35 45.47150 -73.72732 120 ft 21 kts 43°
2026-05-07 19:35 45.47259 -73.72589 121 ft 21 kts 43°
2026-05-07 19:35 45.47367 -73.72447 120 ft 21 kts 43°
2026-05-07 19:35 45.47474 -73.72307 122 ft 21 kts 43°
2026-05-07 19:36 45.47579 -73.72167 121 ft 21 kts 42°
2026-05-07 19:36 45.47686 -73.72032 122 ft 20 kts 43°
2026-05-07 19:36 45.47788 -73.71892 124 ft 20 kts 44°
2026-05-07 19:36 45.47847 -73.71796 124 ft 3 kts 84°
2026-05-07 19:37 45.47839 -73.71762 123 ft 7 kts 117°
2026-05-07 19:37 45.47787 -73.71685 127 ft 15 kts 145°
2026-05-07 19:37 45.47737 -73.71616 125 ft 6 kts 143°
2026-05-07 19:37 45.47708 -73.71613 128 ft 6 kts 193°
2026-05-07 19:38 45.47639 -73.71686 127 ft 22 kts 224°
2026-05-07 19:38 45.47381 -73.72026 122 ft 83 kts 222°
2026-05-07 19:38 45.46796 -73.72794 117 ft 143 kts 222°
2026-05-07 19:38 45.45985 -73.73870 394 ft 168 kts 223°
2026-05-07 19:39 45.45143 -73.75027 1169 ft 166 kts 229°
2026-05-07 19:39 45.44328 -73.76170 1931 ft 165 kts 229°
2026-05-07 19:39 45.43510 -73.77322 2532 ft 166 kts 233°
2026-05-07 19:39 45.42710 -73.78537 3117 ft 167 kts 229°
2026-05-07 19:40 45.42044 -73.79797 3735 ft 157 kts 257°
2026-05-07 19:40 45.42235 -73.81299 4140 ft 165 kts 306°
2026-05-07 19:40 45.43065 -73.82002 4222 ft 200 kts 344°
2026-05-07 19:40 45.44508 -73.82049 4658 ft 208 kts 350°
2026-05-07 19:41 45.45968 -73.82285 5142 ft 215 kts 346°
2026-05-07 19:41 45.47476 -73.82522 5514 ft 227 kts 346°
2026-05-07 19:41 45.49102 -73.82768 5915 ft 238 kts 347°
2026-05-07 19:41 45.50785 -73.83055 6131 ft 258 kts 346°
2026-05-07 19:42 45.52591 -73.83420 6859 ft 256 kts 347°
2026-05-07 19:42 45.54368 -73.83757 7603 ft 261 kts 347°
2026-05-07 19:42 45.56202 -73.84035 8081 ft 272 kts 358°
2026-05-07 19:42 45.58017 -73.83140 8754 ft 286 kts 34°
2026-05-07 19:43 45.59351 -73.81010 9435 ft 291 kts 48°
2026-05-07 19:43 45.60749 -73.78867 9903 ft 297 kts 40°
2026-05-07 19:43 45.62237 -73.76788 10404 ft 304 kts 40°
2026-05-07 19:43 45.63845 -73.74728 10730 ft 316 kts 37°
2026-05-07 19:44 45.65445 -73.72460 11088 ft 329 kts 44°
2026-05-07 19:44 45.66953 -73.69971 11392 ft 344 kts 47°
2026-05-07 19:44 45.68570 -73.67356 11634 ft 359 kts 44°
2026-05-07 19:44 45.70346 -73.64744 11824 ft 374 kts 42°
2026-05-07 19:45 45.72201 -73.62057 12183 ft 384 kts 43°
2026-05-07 19:45 45.74050 -73.59251 12692 ft 390 kts 45°
2026-05-07 19:45 45.75901 -73.56394 13314 ft 392 kts 44°
2026-05-07 19:45 45.77790 -73.53550 13872 ft 396 kts 43°
2026-05-07 19:46 45.79701 -73.50687 14381 ft 399 kts 43°
2026-05-07 19:46 45.81625 -73.47793 14834 ft 403 kts 44°
2026-05-07 19:46 45.83536 -73.44899 15333 ft 407 kts 44°
2026-05-07 19:46 45.85483 -73.41923 15801 ft 411 kts 44°
2026-05-07 19:47 45.87452 -73.38921 16252 ft 415 kts 44°
2026-05-07 19:47 45.89446 -73.35908 16775 ft 418 kts 44°
2026-05-07 19:47 45.91452 -73.32844 17240 ft 423 kts 44°
2026-05-07 19:47 45.93464 -73.29744 17680 ft 427 kts 44°
2026-05-07 19:48 45.95501 -73.26613 18136 ft 431 kts 44°
2026-05-07 19:48 45.97560 -73.23459 18519 ft 435 kts 44°
2026-05-07 19:48 45.99637 -73.20271 18908 ft 438 kts 44°
2026-05-07 19:48 46.01688 -73.17110 19313 ft 442 kts 44°
2026-05-07 19:49 46.03786 -73.13860 19689 ft 446 kts 44°
2026-05-07 19:49 46.05898 -73.10571 20068 ft 449 kts 44°
2026-05-07 19:49 46.08029 -73.07265 20428 ft 452 kts 44°
2026-05-07 19:49 46.10206 -73.03963 20800 ft 456 kts 44°
2026-05-07 19:50 46.12382 -73.00618 21148 ft 460 kts 44°
2026-05-07 19:50 46.14554 -72.97225 21531 ft 462 kts 44°
2026-05-07 19:50 46.16745 -72.93786 21840 ft 467 kts 45°
2026-05-07 19:50 46.18629 -72.90021 22147 ft 473 kts 57°
2026-05-07 19:51 46.20307 -72.85956 22448 ft 477 kts 58°
2026-05-07 19:51 46.22011 -72.81799 22847 ft 479 kts 57°
2026-05-07 19:51 46.23731 -72.77658 23161 ft 483 kts 57°
2026-05-07 19:51 46.25468 -72.73491 23492 ft 485 kts 57°
2026-05-07 19:52 46.27213 -72.69302 23791 ft 488 kts 57°
2026-05-07 19:52 46.28958 -72.65077 24076 ft 491 kts 57°
2026-05-07 19:52 46.30707 -72.60828 24363 ft 493 kts 57°
2026-05-07 19:52 46.32447 -72.56612 24642 ft 496 kts 57°
2026-05-07 19:53 46.34217 -72.52324 24929 ft 498 kts 58°
2026-05-07 19:53 46.35994 -72.48003 25210 ft 501 kts 58°
2026-05-07 19:53 46.37779 -72.43650 25484 ft 504 kts 58°
2026-05-07 19:53 46.39570 -72.39281 25756 ft 506 kts 58°
2026-05-07 19:54 46.41371 -72.34881 26037 ft 509 kts 58°
2026-05-07 19:54 46.43180 -72.30456 26305 ft 512 kts 58°
2026-05-07 19:54 46.44994 -72.26008 26587 ft 514 kts 58°
2026-05-07 19:54 46.46818 -72.21530 26860 ft 517 kts 58°
2026-05-07 19:55 46.48625 -72.17086 27122 ft 519 kts 58°
2026-05-07 19:55 46.50463 -72.12560 27406 ft 522 kts 58°
2026-05-07 19:55 46.52307 -72.08009 27694 ft 525 kts 58°
2026-05-07 19:55 46.54159 -72.03431 27980 ft 527 kts 58°
2026-05-07 19:56 46.56028 -71.98818 28259 ft 530 kts 58°
2026-05-07 19:56 46.57944 -71.94221 28545 ft 533 kts 57°
2026-05-07 19:56 46.59885 -71.89633 28830 ft 535 kts 57°
2026-05-07 19:56 46.61815 -71.84983 29108 ft 538 kts 58°
2026-05-07 19:57 46.63730 -71.80289 29394 ft 541 kts 58°
2026-05-07 19:57 46.65665 -71.75580 29683 ft 543 kts 58°
2026-05-07 19:57 46.67623 -71.70860 29962 ft 546 kts 58°
2026-05-07 19:57 46.69586 -71.66108 30209 ft 549 kts 58°
2026-05-07 19:58 46.71542 -71.61326 30460 ft 551 kts 59°
2026-05-07 19:58 46.73480 -71.56577 30706 ft 553 kts 58°
2026-05-07 19:58 46.75457 -71.51753 30956 ft 556 kts 58°
2026-05-07 19:58 46.77444 -71.46902 31229 ft 558 kts 59°
2026-05-07 19:59 46.79427 -71.42036 31544 ft 558 kts 59°
2026-05-07 19:59 46.81406 -71.37162 31876 ft 558 kts 59°
2026-05-07 19:59 46.83385 -71.32287 32209 ft 558 kts 59°
2026-05-07 19:59 46.85366 -71.27407 32544 ft 558 kts 59°
2026-05-07 20:00 46.86672 -71.24184 32763 ft 558 kts 59°
2026-05-07 20:00 46.88647 -71.19296 33096 ft 558 kts 59°
2026-05-07 20:00 46.91258 -71.12819 33529 ft 558 kts 59°
2026-05-07 20:00 46.93230 -71.07923 33843 ft 558 kts 59°
2026-05-07 20:01 46.95200 -71.03024 34100 ft 559 kts 59°
2026-05-07 20:01 46.96503 -70.99776 34272 ft 559 kts 59°
2026-05-07 20:01 46.98467 -70.94872 34552 ft 559 kts 59°
2026-05-07 20:01 47.00431 -70.89961 34819 ft 558 kts 59°
2026-05-07 20:02 47.02393 -70.85045 35095 ft 558 kts 59°
2026-05-07 20:02 47.04351 -70.80134 35363 ft 558 kts 59°
2026-05-07 20:02 47.06306 -70.75218 35624 ft 558 kts 59°
2026-05-07 20:02 47.08891 -70.68705 35985 ft 558 kts 60°
2026-05-07 20:03 47.10208 -70.65381 36232 ft 556 kts 60°
2026-05-07 20:03 47.12148 -70.60478 36538 ft 555 kts 60°
2026-05-07 20:03 47.14057 -70.55644 36695 ft 557 kts 60°
2026-05-07 20:03 47.16000 -70.50714 36706 ft 559 kts 60°
2026-05-07 20:04 47.17939 -70.45786 37031 ft 555 kts 60°
2026-05-07 20:04 47.19862 -70.40889 37443 ft 552 kts 60°
2026-05-07 20:04 47.21776 -70.36009 37742 ft 550 kts 60°
2026-05-07 20:04 47.23683 -70.31136 38014 ft 550 kts 60°
2026-05-07 20:05 47.25589 -70.26257 38265 ft 549 kts 60°
2026-05-07 20:05 47.27489 -70.21382 38484 ft 549 kts 60°
2026-05-07 20:05 47.29386 -70.16511 38622 ft 550 kts 60°
2026-05-07 20:05 47.31290 -70.11608 38682 ft 552 kts 60°
2026-05-07 20:06 47.35058 -70.01885 38682 ft 547 kts 60°
2026-05-07 20:06 47.38815 -69.92155 38679 ft 545 kts 60°
2026-05-07 20:07 47.42556 -69.82429 38680 ft 545 kts 60°
2026-05-07 20:07 47.46288 -69.72691 38679 ft 544 kts 60°
2026-05-07 20:08 47.49976 -69.63036 38678 ft 544 kts 60°
2026-05-07 20:08 47.62928 -69.28844 38836 ft 537 kts 61°
2026-05-07 20:08 47.77627 -68.89809 38817 ft 539 kts 60°
2026-05-07 20:09 48.07527 -68.11556 38847 ft 542 kts 62°
2026-05-07 20:10 48.51468 -66.91780 38801 ft 543 kts 63°
2026-05-07 20:10 48.79787 -66.11620 38742 ft 539 kts 64°
2026-05-07 20:11 49.07679 -65.30156 38731 ft 540 kts 65°
2026-05-07 20:11 49.34954 -64.47910 38785 ft 538 kts 66°
2026-05-07 20:12 49.61493 -63.65208 38795 ft 540 kts 66°
2026-05-07 20:12 49.87583 -62.81145 38721 ft 537 kts 68°
2026-05-07 20:13 50.12927 -61.96611 38648 ft 538 kts 69°
2026-05-07 20:13 50.34496 -61.10073 38598 ft 536 kts 74°
2026-05-07 20:14 50.54850 -60.22729 38492 ft 534 kts 74°
2026-05-07 20:14 50.73943 -59.35893 38541 ft 530 kts 76°
2026-05-07 20:14 50.83364 -58.92032 38675 ft 526 kts 75°
2026-05-07 20:15 50.92603 -58.48206 38756 ft 523 kts 76°
2026-05-07 20:15 51.10504 -57.59817 38802 ft 523 kts 77°
2026-05-07 20:16 51.27749 -56.70967 38642 ft 529 kts 77°
2026-05-07 20:16 51.46305 -55.82490 38749 ft 534 kts 65°
2026-05-07 20:16 51.57885 -55.38971 38886 ft 531 kts 67°
2026-05-07 20:17 51.69363 -54.95372 38970 ft 525 kts 69°